Tracking 19254 objects as of 21-Oct-2018
HD Live streaming from Space Station
objects crossing your sky now

AALTO 1

Track AALTO 1 now!
10-day predictions
AALTO 1 is classified as:


NORAD ID: 42775
Int'l Code: 2017-036L
Perigee: 500.6 km
Apogee: 519.6 km
Inclination: 97.4 °
Period: 94.7 minutes
Semi major axis: 6881 km
RCS: Unknown
Launch date: June 23, 2017
Source: (FIN)
Launch site: SRIHARIKOTA (SRI)

Uplink (MHz):
Downlink (MHz): 437.220/2402.000
Beacon (MHz): 437.220
Mode: 9600bps FSK CW
Call sign: OH2A1S
Status: Active

aabbcc
Your satellite tracking list
Your tracking list is empty




NASA's NSSDC Master Catalog

Two Line Element Set (TLE):
1 42775U 17036L   18293.70137565  .00000769  00000-0  37793-4 0  9994
2 42775  97.3861 350.7089 0013773 352.1324   7.9694 15.20952624 73577
Source of the keplerian elements: AMSAT